CCA1841 ZSJN-ZUGY

Flight info

Callsign CCA1841
Flight time N/A
Altitude 34100
Route EXUVU W4 LIMGI W152 TAREX W278 AVDIG W276 ARELA W30 TAMUS W180 MEMAG
Aircraft B77W/H-MSDE2E3FGHIRWXY/LB1

Departure

Time 2026-04-19 11:27
Airport Jinan Yaoqiang International Airport (ZSJN)

Arrival

Time N/A
Airport Guiyang Longdongbao International Airport (ZUGY)
Time Latitude Longitude Altitude Speed Heading
2026-04-19 10:41 36.85220 117.21139 90 ft 0 kts 90°
2026-04-19 11:19 36.85220 117.21178 90 ft 7 kts 90°
2026-04-19 11:20 36.85206 117.21242 90 ft 7 kts 134°
2026-04-19 11:20 36.85163 117.21284 90 ft 8 kts 130°
2026-04-19 11:20 36.85128 117.21341 90 ft 8 kts 140°
2026-04-19 11:20 36.85073 117.21368 90 ft 8 kts 171°
2026-04-19 11:21 36.85009 117.21373 90 ft 9 kts 179°
2026-04-19 11:21 36.84945 117.21374 90 ft 9 kts 180°
2026-04-19 11:21 36.84879 117.21374 90 ft 9 kts 180°
2026-04-19 11:22 36.84745 117.21375 90 ft 9 kts 179°
2026-04-19 11:22 36.84676 117.21375 90 ft 9 kts 179°
2026-04-19 11:22 36.84606 117.21374 90 ft 9 kts 180°
2026-04-19 11:22 36.84560 117.21374 90 ft 9 kts 179°
2026-04-19 11:23 36.84467 117.21374 90 ft 10 kts 180°
2026-04-19 11:23 36.84375 117.21374 90 ft 15 kts 180°
2026-04-19 11:23 36.84300 117.21374 90 ft 17 kts 179°
2026-04-19 11:23 36.84197 117.21374 90 ft 10 kts 180°
2026-04-19 11:24 36.84137 117.21401 90 ft 9 kts 126°
2026-04-19 11:24 36.84123 117.21449 90 ft 0 kts 98°
2026-04-19 11:25 36.84123 117.21450 90 ft 0 kts 98°
2026-04-19 11:25 36.84121 117.21465 90 ft 5 kts 95°
2026-04-19 11:25 36.84132 117.21563 90 ft 9 kts 58°
2026-04-19 11:26 36.84182 117.21597 90 ft 7 kts
2026-04-19 11:26 36.84213 117.21600 90 ft 0 kts
2026-04-19 11:26 36.84227 117.21600 90 ft 15 kts
2026-04-19 11:27 36.85003 117.21599 92 ft 146 kts
2026-04-19 11:27 36.86186 117.21604 699 ft 187 kts 359°
2026-04-19 11:27 36.87369 117.21582 2521 ft 179 kts 358°
2026-04-19 11:27 36.88586 117.21555 3799 ft 193 kts 359°
2026-04-19 11:28 36.89991 117.21525 4837 ft 219 kts 359°
2026-04-19 11:28 36.91576 117.21491 5915 ft 244 kts 359°
2026-04-19 11:28 36.92754 117.21466 6533 ft 265 kts 359°
2026-04-19 11:28 36.95278 117.21413 8244 ft 287 kts 358°
2026-04-19 11:29 36.97280 117.21370 9667 ft 297 kts 358°
2026-04-19 11:29 36.98629 117.21333 10584 ft 303 kts 354°
2026-04-19 11:29 37.01501 117.20766 12076 ft 326 kts 341°
2026-04-19 11:29 37.03663 117.19801 13165 ft 340 kts 331°
2026-04-19 11:30 37.05750 117.18335 14274 ft 353 kts 320°
2026-04-19 11:30 37.07050 117.17078 15017 ft 359 kts 313°
2026-04-19 11:30 37.09290 117.13963 16429 ft 371 kts 299°
2026-04-19 11:30 37.10578 117.11124 17421 ft 380 kts 288°
2026-04-19 11:31 37.11422 117.07989 18423 ft 386 kts 278°
2026-04-19 11:31 37.11809 117.04707 19751 ft 386 kts 273°
2026-04-19 11:31 37.12083 117.01416 21176 ft 383 kts 273°
2026-04-19 11:31 37.12345 116.98180 22471 ft 381 kts 274°
2026-04-19 11:32 37.12611 116.94898 23600 ft 383 kts 275°
2026-04-19 11:32 37.12879 116.91585 24561 ft 387 kts 275°
2026-04-19 11:32 37.13150 116.88222 25419 ft 394 kts 275°
2026-04-19 11:32 37.13314 116.84782 26190 ft 400 kts 269°
2026-04-19 11:33 37.13203 116.82438 26658 ft 406 kts 265°
2026-04-19 11:33 37.12403 116.77837 27737 ft 413 kts 255°
2026-04-19 11:33 37.11725 116.75590 28269 ft 416 kts 251°
2026-04-19 11:33 37.10594 116.72243 28934 ft 421 kts 250°
2026-04-19 11:34 37.09450 116.68891 29526 ft 426 kts 250°
2026-04-19 11:34 37.07892 116.64333 30458 ft 427 kts 250°
2026-04-19 11:34 37.06722 116.60911 31256 ft 426 kts 251°
2026-04-19 11:34 37.05579 116.57564 32037 ft 424 kts 251°
2026-04-19 11:35 37.04428 116.54198 32813 ft 421 kts 251°
2026-04-19 11:35 37.03664 116.51963 33361 ft 418 kts 250°
2026-04-19 11:35 37.02148 116.47534 34082 ft 415 kts 251°
2026-04-19 11:36 36.99882 116.40920 34112 ft 413 kts 252°
2026-04-19 11:36 36.97591 116.34244 34112 ft 414 kts 251°
2026-04-19 11:37 36.95656 116.28617 34136 ft 413 kts 249°
2026-04-19 11:37 36.93360 116.21959 34123 ft 412 kts 249°
2026-04-19 11:38 36.90696 116.14247 34111 ft 414 kts 250°
2026-04-19 11:38 36.88417 116.07669 34133 ft 416 kts 250°
2026-04-19 11:39 36.86125 116.01065 34128 ft 417 kts 251°
2026-04-19 11:39 36.83825 115.94453 34122 ft 415 kts 251°
2026-04-19 11:40 36.81519 115.87840 34122 ft 416 kts 250°
2026-04-19 11:40 36.79219 115.81258 34114 ft 412 kts 250°
2026-04-19 11:41 36.76918 115.74688 34116 ft 419 kts 250°
2026-04-19 11:41 36.74589 115.68062 34118 ft 417 kts 250°
2026-04-19 11:42 36.72216 115.61316 34405 ft 432 kts 250°
2026-04-19 11:42 36.71010 115.57903 35265 ft 428 kts 251°
2026-04-19 11:42 36.70220 115.55668 35883 ft 423 kts 250°
2026-04-19 11:42 36.68652 115.51234 36113 ft 421 kts 250°
2026-04-19 11:43 36.67468 115.47889 36114 ft 417 kts 251°
2026-04-19 11:43 36.65519 115.42387 36100 ft 423 kts 251°
2026-04-19 11:44 36.62715 115.34485 36114 ft 436 kts 249°
2026-04-19 11:44 36.60257 115.27580 36137 ft 438 kts 249°
2026-04-19 11:45 36.57785 115.20649 36137 ft 440 kts 249°
2026-04-19 11:45 36.54783 115.14043 36128 ft 449 kts 238°
2026-04-19 11:46 36.51256 115.09248 36139 ft 452 kts 229°
2026-04-19 11:46 36.45919 115.02947 36130 ft 457 kts 229°
2026-04-19 11:47 36.41298 114.97503 36128 ft 459 kts 229°
2026-04-19 11:47 36.36796 114.91896 36127 ft 455 kts 236°
2026-04-19 11:48 36.33370 114.85422 36131 ft 449 kts 244°
2026-04-19 11:48 36.30231 114.78764 36128 ft 446 kts 244°
2026-04-19 11:49 36.27079 114.72117 36130 ft 449 kts 244°
2026-04-19 11:49 36.23843 114.65499 36132 ft 449 kts 243°
2026-04-19 11:50 36.20583 114.58849 36135 ft 451 kts 243°
2026-04-19 11:50 36.17337 114.52237 36140 ft 450 kts 243°
2026-04-19 11:51 36.14077 114.45606 36135 ft 452 kts 243°
2026-04-19 11:51 36.10813 114.38981 36128 ft 448 kts 244°
2026-04-19 11:52 36.08107 114.33495 36139 ft 451 kts 243°
2026-04-19 11:52 36.04820 114.26844 36144 ft 452 kts 243°
2026-04-19 11:53 36.01026 114.19186 36137 ft 448 kts 243°
2026-04-19 11:53 35.97746 114.12573 36144 ft 454 kts 243°
2026-04-19 11:54 35.94479 114.06008 36139 ft 449 kts 244°
2026-04-19 11:54 35.91196 113.99415 36138 ft 451 kts 244°
2026-04-19 11:55 35.88449 113.93913 36122 ft 452 kts 243°
2026-04-19 11:55 35.84603 113.86222 36124 ft 450 kts 243°
2026-04-19 11:56 35.81306 113.79640 36133 ft 451 kts 243°
2026-04-19 11:56 35.78021 113.73100 36131 ft 449 kts 243°
2026-04-19 11:57 35.75241 113.67571 36139 ft 451 kts 243°
2026-04-19 11:57 35.71963 113.61068 36139 ft 447 kts 243°
2026-04-19 11:58 35.68131 113.53474 36162 ft 450 kts 243°
2026-04-19 11:58 35.64804 113.46900 36178 ft 448 kts 244°
2026-04-19 11:59 35.61516 113.40411 36178 ft 449 kts 243°
2026-04-19 11:59 35.58799 113.34945 36175 ft 446 kts 243°
2026-04-19 12:00 35.55060 113.27335 36194 ft 446 kts 243°
2026-04-19 12:00 35.52369 113.21874 36194 ft 448 kts 243°
2026-04-19 12:01 35.48586 113.14220 36190 ft 445 kts 243°
2026-04-19 12:01 35.45367 113.07720 36188 ft 448 kts 243°
2026-04-19 12:02 35.42131 113.01204 36205 ft 446 kts 243°
2026-04-19 12:02 35.38945 112.94798 36189 ft 441 kts 243°
2026-04-19 12:03 35.36287 112.89464 36187 ft 440 kts 243°
2026-04-19 12:03 35.33077 112.83031 36198 ft 441 kts 243°
2026-04-19 12:04 35.29338 112.75554 36199 ft 439 kts 243°
2026-04-19 12:04 35.26141 112.69173 36198 ft 440 kts 243°
2026-04-19 12:05 35.22947 112.62811 36191 ft 440 kts 243°
2026-04-19 12:05 35.20261 112.57468 36188 ft 440 kts 243°
2026-04-19 12:06 35.16565 112.50015 36181 ft 437 kts 244°
2026-04-19 12:06 35.13411 112.43651 36177 ft 438 kts 243°
2026-04-19 12:07 35.10258 112.37305 36171 ft 436 kts 243°
2026-04-19 12:07 35.07125 112.31011 36171 ft 440 kts 243°
2026-04-19 12:08 35.03947 112.24641 36169 ft 437 kts 243°
2026-04-19 12:08 35.00788 112.18321 36170 ft 439 kts 243°
2026-04-19 12:09 34.98158 112.13068 36171 ft 435 kts 243°
2026-04-19 12:09 34.94457 112.05688 36176 ft 439 kts 243°
2026-04-19 12:10 34.91289 111.99385 36175 ft 439 kts 243°
2026-04-19 12:10 34.88106 111.93063 36194 ft 439 kts 243°
2026-04-19 12:11 34.85461 111.87775 36184 ft 438 kts 243°
2026-04-19 12:11 34.81777 111.80360 36208 ft 440 kts 243°
2026-04-19 12:12 34.79129 111.75044 36211 ft 438 kts 243°
2026-04-19 12:12 34.75432 111.67635 36225 ft 440 kts 243°
2026-04-19 12:13 34.72276 111.61326 36217 ft 439 kts 243°
2026-04-19 12:13 34.69098 111.54984 36225 ft 439 kts 243°
2026-04-19 12:14 34.65915 111.48644 36227 ft 440 kts 243°
2026-04-19 12:14 34.62705 111.42261 36236 ft 440 kts 243°
2026-04-19 12:15 34.60039 111.36970 36240 ft 440 kts 242°
2026-04-19 12:15 34.56316 111.29591 36255 ft 441 kts 242°
2026-04-19 12:16 34.53120 111.23273 36252 ft 441 kts 242°
2026-04-19 12:16 34.50451 111.18002 36262 ft 441 kts 242°
2026-04-19 12:17 34.46695 111.10601 36263 ft 441 kts 241°
2026-04-19 12:17 34.43492 111.04301 36265 ft 442 kts 242°
2026-04-19 12:18 34.40285 110.97915 36271 ft 443 kts 242°
2026-04-19 12:18 34.37106 110.91547 36270 ft 443 kts 242°
2026-04-19 12:19 34.33918 110.85177 36270 ft 442 kts 242°
2026-04-19 12:19 34.31241 110.79839 36269 ft 445 kts 242°
2026-04-19 12:20 34.27510 110.72414 36270 ft 444 kts 242°
2026-04-19 12:20 34.24296 110.66032 36264 ft 443 kts 242°
2026-04-19 12:21 34.21076 110.59649 36267 ft 445 kts 242°
2026-04-19 12:21 34.18387 110.54334 36268 ft 443 kts 242°
2026-04-19 12:22 34.14629 110.46908 36269 ft 445 kts 242°
2026-04-19 12:22 34.11978 110.41650 36259 ft 443 kts 242°
2026-04-19 12:23 34.08778 110.35268 36259 ft 446 kts 242°
2026-04-19 12:23 34.05567 110.28881 36283 ft 448 kts 241°
2026-04-19 12:24 34.01787 110.21380 36279 ft 447 kts 242°
2026-04-19 12:24 33.98554 110.14977 36284 ft 450 kts 242°
2026-04-19 12:25 33.95318 110.08579 36285 ft 447 kts 241°
2026-04-19 12:25 33.92600 110.03214 36274 ft 451 kts 241°
2026-04-19 12:26 33.88796 109.97218 36276 ft 454 kts 229°
2026-04-19 12:26 33.83101 109.91479 36285 ft 460 kts 223°
2026-04-19 12:26 33.80628 109.89114 36011 ft 448 kts 223°
2026-04-19 12:27 33.78211 109.86802 34973 ft 451 kts 223°
2026-04-19 12:27 33.75761 109.84458 34315 ft 456 kts 223°
2026-04-19 12:27 33.73260 109.82065 34274 ft 466 kts 222°
2026-04-19 12:28 33.65566 109.74723 34279 ft 469 kts 222°
2026-04-19 12:28 33.60440 109.69843 34269 ft 472 kts 222°
2026-04-19 12:29 33.56163 109.65777 34271 ft 469 kts 223°
2026-04-19 12:29 33.50210 109.60125 34274 ft 472 kts 222°
2026-04-19 12:30 33.45029 109.55215 34259 ft 473 kts 223°
2026-04-19 12:30 33.39869 109.50332 34264 ft 474 kts 222°
2026-04-19 12:31 33.35569 109.46269 34271 ft 474 kts 222°
2026-04-19 12:31 33.30353 109.41348 34258 ft 475 kts 222°
2026-04-19 12:32 33.24290 109.35637 34258 ft 477 kts 222°
2026-04-19 12:32 33.19072 109.30731 34272 ft 477 kts 221°
2026-04-19 12:33 33.13815 109.25794 34265 ft 480 kts 221°
2026-04-19 12:33 33.08575 109.20883 34265 ft 481 kts 221°
2026-04-19 12:34 33.03296 109.15942 34270 ft 480 kts 221°
2026-04-19 12:34 32.98018 109.11010 34250 ft 483 kts 221°
2026-04-19 12:35 32.92728 109.06076 34247 ft 481 kts 221°
2026-04-19 12:35 32.87463 109.01171 34250 ft 482 kts 221°
2026-04-19 12:36 32.82169 108.96247 34248 ft 482 kts 221°
2026-04-19 12:36 32.76893 108.91349 34242 ft 483 kts 221°
2026-04-19 12:37 32.71624 108.86464 34229 ft 482 kts 221°
2026-04-19 12:37 32.66319 108.81553 34227 ft 483 kts 221°
2026-04-19 12:38 32.61935 108.77500 34229 ft 483 kts 221°